N5ZPR Weather Reports


time (UTC)temp
F
wind
direction
speed
knots
gust
knots
rain 1hr
in
rain 24hr
in
rain mn
in
humidity
%
barometer
mb
20260509173003 85 351 1.7 7.0 0.00 0.03 0.00 52 1008.6
20260509172003 85 354 4.3 7.8 0.00 0.03 0.00 54 1008.6
20260509171004 84 357 4.3 8.7 0.00 0.03 0.00 55 1008.6
20260509165004 83 7 7.0 11.3 0.00 0.03 0.00 56 1008.6
20260509164003 82 324 4.3 10.4 0.00 0.03 0.00 57 1008.6
20260509163003 82 337 4.3 10.4 0.00 0.03 0.00 55 1008.6
20260509162004 82 348 7.0 10.4 0.00 0.03 0.00 56 1008.6
20260509161003 82 353 4.3 7.8 0.00 0.03 0.00 59 1008.6
20260509160004 81 331 4.3 7.0 0.00 0.03 0.00 57 1008.5
20260509154004 80 350 3.5 10.4 0.00 0.03 0.00 59 1008.3
20260509153003 80 353 5.2 13.0 0.00 0.03 0.00 58 1008.3
20260509151004 79 359 7.0 10.4 0.00 0.03 0.00 62 1008.5
20260509150004 78 359 4.3 8.7 0.00 0.03 0.00 65 1008.5
20260509145003 78 346 5.2 7.8 0.00 0.03 0.00 70 1008.5
20260509144004 77 6 4.3 7.8 0.00 0.03 0.00 72 1008.6
20260509143004 76 346 1.7 7.0 0.00 0.03 0.00 75 1008.6
20260509141003 73 322 1.7 6.1 0.00 0.03 0.00 80 1008.6
20260509140004 72 281 2.6 5.2 0.00 0.03 0.00 82 1008.5
20260509135003 72 344 2.6 5.2 0.00 0.03 0.00 83 1008.1
20260509134004 71 343 2.6 7.0 0.00 0.03 0.00 83 1008.1
20260509133004 71 342 2.6 10.4 0.00 0.03 0.00 83 1008.1
20260509132004 71 10 4.3 8.7 0.00 0.03 0.00 84 1008.1
20260509131003 70 339 3.5 7.0 0.00 0.03 0.00 85 1008.1
20260509130004 70 319 3.5 7.8 0.00 0.03 0.00 85 1008.1
20260509125004 69 338 2.6 7.0 0.00 0.03 0.00 86 1008.1
20260509124003 69 297 1.7 5.2 0.00 0.03 0.00 88 1008.1
20260509123004 68 355 1.7 5.2 0.00 0.03 0.00 90 1008.1
20260509122004 68 307 2.6 5.2 0.00 0.03 0.00 91 1008.1
20260509121003 68 298 2.6 6.1 0.00 0.03 0.00 91 1007.8
20260509120004 68 305 0.0 0.0 0.00 0.03 0.00 90 1007.8
20260509115005 68 305 0.0 0.0 0.00 0.03 0.00 90 1007.8
20260509114003 69 305 0.0 1.7 0.00 0.03 0.00 89 1007.7
20260509113003 69 305 0.0 1.7 0.00 0.03 0.00 88 1007.2
20260509112004 70 305 0.0 0.9 0.00 0.03 0.00 87 1007.2
20260509111004 70 305 0.9 1.7 0.00 0.03 0.00 87 1007.2
20260509110003 71 305 0.9 1.7 0.00 0.03 0.00 86 1007.2
20260509105004 71 311 0.9 0.9 0.00 0.03 0.00 86 1007.1
20260509104003 71 311 0.0 5.2 0.00 0.03 0.00 86 1007.1
20260509103003 71 301 0.9 2.6 0.00 0.03 0.00 88 1007.1
20260509102003 71 315 1.7 6.1 0.00 0.03 0.00 90 1004.8
20260509101004 71 340 2.6 10.4 0.00 0.03 0.00 91 1004.8
20260509100005 70 311 4.3 10.4 0.00 0.03 0.00 92 1004.8
20260509095003 70 224 3.5 5.2 0.00 0.03 0.00 92 1004.8
20260509094004 70 199 4.3 10.4 0.00 0.03 0.00 92 1004.6
20260509093003 70 169 2.6 7.8 0.00 0.03 0.00 92 1004.6
20260509092003 70 165 2.6 8.7 0.00 0.03 0.00 92 1004.6
20260509091003 70 128 3.5 8.7 0.00 0.03 0.00 92 1004.6
20260509085004 69 185 4.3 7.8 0.00 0.03 0.00 93 1005.0
20260509084004 69 172 2.6 10.4 0.00 0.03 0.00 92 1005.0
20260509083003 69 183 2.6 6.1 0.00 0.03 0.00 92 1007.1
20260509082004 69 214 3.5 6.1 0.00 0.03 0.00 93 1007.1
20260509075004 69 167 0.9 2.6 0.00 0.03 0.00 92 1008.4
20260509074003 69 169 0.9 5.2 0.00 0.03 0.00 92 1008.4
20260509073003 69 194 0.9 5.2 0.00 0.03 0.00 92 1009.2
20260509072004 69 5 0.9 1.7 0.00 0.03 0.00 93 1009.2
20260509071003 69 345 0.0 0.9 0.00 0.03 0.00 93 1009.2
20260509070004 69 344 0.9 2.6 0.00 0.03 0.00 93 1009.1
20260509065003 69 355 0.0 0.0 0.00 0.03 0.00 93 1009.1
20260509064003 69 355 0.0 0.0 0.00 0.03 0.00 93 1009.1
20260509063003 69 355 0.0 0.0 0.00 0.03 0.00 93 1009.1
20260509062003 69 355 0.0 1.7 0.00 0.03 0.00 93 1009.1
20260509061003 69 355 0.0 1.7 0.00 0.03 0.00 93 1009.0
20260509060004 69 352 2.6 4.3 0.00 0.03 0.00 93 1009.0
20260509055004 69 338 1.7 4.3 0.00 0.03 0.00 93 1009.0
20260509054004 69 340 1.7 5.2 0.00 0.03 0.00 92 1008.0
20260509053004 69 138 0.0 0.9 0.00 0.03 0.00 91 1008.0
20260509052003 69 138 0.0 0.0 0.00 0.03 0.00 91 1008.0
20260509051003 69 138 0.0 0.0 0.00 0.03 0.00 90 1008.0
20260509050004 70 138 0.0 0.9 0.00 0.03 0.00 90 1007.6
20260509043004 71 138 0.0 0.9 0.00 0.03 0.03 88 1007.6
20260509042004 71 138 0.0 0.0 0.00 0.03 0.03 88 1007.6
20260509041004 71 138 0.0 0.0 0.00 0.03 0.03 88 1007.6
20260509040004 71 138 0.0 0.9 0.00 0.03 0.03 87 1007.6
20260509035004 71 138 0.9 2.6 0.00 0.03 0.03 87 1007.6
20260509034003 72 133 0.9 2.6 0.00 0.03 0.03 86 1007.6
20260509033003 72 145 0.9 2.6 0.00 0.03 0.03 86 1007.3
20260509032003 72 146 0.9 1.7 0.00 0.03 0.03 85 1007.3
20260509031004 72 136 0.9 1.7 0.00 0.03 0.03 85 1007.3
20260509030004 72 134 0.0 2.6 0.00 0.03 0.03 85 1006.5
20260509024003 72 206 0.9 4.3 0.00 0.03 0.03 85 1006.5
20260509022003 73 151 0.0 0.0 0.00 0.03 0.03 84 1006.8
20260509021004 73 151 0.0 0.0 0.00 0.03 0.03 84 1006.7
20260509020004 73 151 0.0 0.0 0.00 0.03 0.03 84 1006.7
20260509015004 73 151 0.0 0.0 0.00 0.03 0.03 83 1006.7
20260509014003 73 151 0.0 0.0 0.00 0.03 0.03 83 1006.7
20260509013004 73 151 0.0 0.0 0.00 0.03 0.03 83 1006.2
20260509012003 73 151 0.0 0.0 0.00 0.03 0.03 82 1006.2
20260509010003 73 151 0.0 0.0 0.00 0.03 0.03 82 1006.1
20260509005005 73 151 0.0 1.7 0.00 0.03 0.03 81 1006.0
20260509004004 73 151 0.0 0.9 0.00 0.03 0.03 81 1005.9
20260509003004 74 151 0.0 1.7 0.00 0.03 0.03 80 1005.9
20260509002003 74 151 0.9 1.7 0.00 0.03 0.03 80 1006.2
20260509001004 74 151 0.0 2.6 0.00 0.03 0.03 79 1006.2
20260509000004 74 147 0.9 2.6 0.00 0.03 0.03 79 1007.0
20260508234003 74 142 0.9 2.6 0.00 0.03 0.03 79 1007.0
20260508233003 74 166 1.7 6.1 0.00 0.03 0.03 78 1007.0
20260508232003 74 150 0.9 4.3 0.00 0.03 0.03 77 1007.0
20260508231003 75 218 0.9 6.1 0.00 0.03 0.03 77 1007.0
20260508230003 75 158 2.6 5.2 0.00 0.03 0.03 77 1007.0
20260508225003 74 155 1.7 4.3 0.00 0.03 0.03 77 1007.0
20260508224004 74 161 0.9 4.3 0.00 0.03 0.03 79 1007.0
20260508223004 73 136 1.7 5.2 0.00 0.03 0.03 80 1007.0
20260508221003 71 126 2.6 5.2 0.00 0.03 0.03 83 1007.0
20260508220003 70 110 1.7 7.8 0.00 0.03 0.03 85 1007.0
20260508215003 69 194 1.7 5.2 0.00 0.03 0.03 88 1007.0
20260508214004 69 166 0.9 2.6 0.00 0.03 0.03 87 1007.4
20260508213004 69 142 0.9 2.6 0.02 0.03 0.03 87 1007.4
20260508212003 68 169 0.9 1.7 0.02 0.03 0.03 87 1007.4
20260508211004 68 205 0.9 2.6 0.03 0.03 0.03 88 1007.4
20260508205004 67 295 0.9 5.2 0.03 0.03 0.03 88 1007.4
20260508204003 67 335 1.7 5.2 0.03 0.03 0.03 86 1007.4
20260508203003 68 168 2.6 5.2 0.01 0.01 0.01 83 1008.0
20260508202004 69 143 0.9 2.6 0.01 0.01 0.01 80 1009.3
20260508201003 71 130 0.9 7.0 0.00 0.00 0.00 76 1009.3
20260508200004 71 174 1.7 7.0 0.00 0.00 0.00 72 1009.3
20260508195003 71 187 1.7 5.2 0.00 0.00 0.00 70 1009.0
20260508194004 72 221 1.7 7.0 0.00 0.00 0.00 68 1009.5
20260508193004 73 174 1.7 6.1 0.00 0.00 0.00 67 1009.5
20260508191003 72 162 1.7 5.2 0.00 0.00 0.00 67 1009.5
20260508190003 73 181 2.6 6.1 0.00 0.00 0.00 68 1009.5
20260508185003 73 177 1.7 7.0 0.00 0.00 0.00 68 1009.5
20260508184003 73 182 1.7 7.0 0.00 0.00 0.00 68 1009.5
20260508182004 73 168 0.9 5.2 0.00 0.00 0.00 68 1009.8
20260508180003 73 181 1.7 6.1 0.00 0.00 0.00 67 1009.8
20260508175003 73 135 2.6 6.1 0.00 0.00 0.00 65 1010.2